Weather Roundup
Issued by NWS Chicago, IL

Home | Current Version | Previous Version | Graphics & Text | Print | Product List | Glossary On
Versions: 1 2 3 4 5 6 7 8 9 10 11 12 13 14 15 16 17 18 19 20 21 22 23 24 25 26 27 28 29 30 31 32 33 34 35 36 37 38 39 40 41 42 43 44 45 46 47 48 49 50
000
NZUS59 KLOT 281810
HRRLOT

CHICAGO AREA WEATHER ROUNDUP
NATIONAL WEATHER SERVICE CHICAGO/ROMEOVILLE IL
1200 PM CST WED JAN 28 2015

NOTE: "FAIR" INDICATES FEW OR NO CLOUDS BELOW 12,000 FEET WITH NO
SIGNIFICANT WEATHER AND/OR OBSTRUCTIONS TO VISIBILITY.

* THESE STATIONS ARE NOT UNDER NWS QUALITY CONTROL. THEY ALSO MAY NOT
  REPORT WEATHER SUCH AS PRECIPITATION OR FOG.

ILZ005-006-012>014-019>023-281900-
NORTHEAST ILLINOIS

CITY           SKY/WX    TMP DP  RH WIND       PRES   REMARKS
OHARE          PTSUNNY   32  18  56 S12       30.18F WCI  23
6HR MIN TEMP:  19; 6HR MAX TEMP:  32;

MIDWAY         PTSUNNY   33  16  49 S16       30.20F WCI  23
6HR MIN TEMP:  24; 6HR MAX TEMP:  34;

AURORA         SUNNY     32  20  61 S18       30.18F WCI  20
6HR MIN TEMP:  19; 6HR MAX TEMP:  32;

LANSING*       MOSUNNY   32  20  61 S15       30.23F WCI  22
JOLIET*        MOSUNNY   31  19  60 S10       30.20F WCI  23
WAUKEGAN       MOSUNNY   31  16  54 SE13      30.17F WCI  21
6HR MIN TEMP:  14; 6HR MAX TEMP:  31;

DUPAGE AIRPORT MOSUNNY   31  18  58 S15       30.17F WCI  20
6HR MIN TEMP:  17; 6HR MAX TEMP:  31;

WHEELING       MOSUNNY   32  16  51 S15       30.20F WCI  22
6HR MIN TEMP:  18; 6HR MAX TEMP:  32;

KANKAKEE*      MOSUNNY   32  22  65 SE12      30.22F WCI  23
MORRIS*        SUNNY     31  24  74 S15G21    30.19F WCI  21
LEWIS AIRPORT* MOSUNNY   31  20  62 S17       30.19F WCI  20
NORTHERLY IS     N/A     32  14  47 S16         N/A  WCI  21
$$

WIZ051-052-058>065-066-070>072-281900-
SOUTHEAST WISCONSIN

CITY           SKY/WX    TMP DP  RH WIND       PRES   REMARKS
MILWAUKEE      PTSUNNY   33  19  56 S14       30.17F WCI  23
6HR MIN TEMP:  22; 6HR MAX TEMP:  33;

KENOSHA*       MOSUNNY   33  17  51 S12       30.16F WCI  24
RACINE*        MOSUNNY   31  17  56 S15       30.18F WCI  20
BURLINGTON     PTSUNNY   30  18  59 S10       30.15F WCI  21
WAUKESHA       SUNNY     28  19  69 SE14      30.16F WCI  17
WEST BEND      PTSUNNY   32  21  64 S10       30.14F WCI  24
$$

INZ001>003-010>013-019-020-281900-
NORTHWEST INDIANA

CITY           SKY/WX    TMP DP  RH WIND       PRES   REMARKS
GARY*          PTSUNNY   34  12  40 S14       30.24  WCI  24
MICHIGAN CITY* NOT AVBL
RENSSELAER*    NOT AVBL
VALPARAISO     MOSUNNY   30  17  58 S12       30.24F WCI  20
$$

LMZ740>746-281900-
SOUTHERN LAKE MICHIGAN

STATION/POSITION TIME  SKY/WX   TEMP WIND        PRES    VSBY
                                AIR  DIR/SP/G
                 (UTC)          (F)  (DEG/KT/KT) (MB)    (MI)
HARRISON CRIB    1800            29  170/ 18/ 21   N/A
BURNHAM HARBOR   1800            32  160/ 15/ 17   N/A
CALUMET HARBOR   1800            31  170/ 11/ 15   N/A
BURNS HARBOR     NOT AVBL
MICHIGAN CITY    1800            29  140/ 13/ 17   N/A
$$

ABBREVIATIONS USED IN REMARKS
   TC - TEMPERATURE IN CELSIUS
  WCI - WIND CHILL INDEX
   HX - HEAT INDEX
  VSB - VISIBILITY
$$



USA.gov is the U.S. government's official web portal to all federal, state and local government web resources and services.